[ hide orbit diagram ]
For accurate long-term ephemerides, please instead use our Horizons system.This orbit viewer was implemented using two-body methods, and hence should not be used for determining accurate long-term trajectories (over several years or decades) or planetary encounter circumstances.
Orbital Elements at Epoch 2459000.5 (2020-May-31.0) TDB
Reference: JPL 16 (heliocentric ecliptic J2000)
Element | Value | Uncertainty (1-sigma) | Units |
e | .1880478120094888 | 5.0577e-08 | |
a | 2.332606528189685 | 1.039e-08 | au |
q | 1.893964974284565 | 1.1542e-07 | au |
i | 3.16011687439987 | 5.198e-06 | deg |
node | 28.79164917670084 | 6.7331e-05 | deg |
peri | 171.2607474758647 | 6.8001e-05 | deg |
M | 112.7831747408327 | 8.8774e-06 | deg |
tp | 2458592.835896598753 (2019-Apr-19.33589660) | 3.1967e-05 | TDB |
period | 1301.249743693511 3.56 | 8.6943e-06 2.38e-08 | d yr |
n | .2766571150117301 | 1.8485e-09 | deg/d |
Q | 2.771248082094805 | 1.2344e-08 | au |
|
| | Orbit Determination Parameters
Additional Information
|
[ show covariance matrix ]
Physical Parameter Table
Parameter |
Symbol |
Value |
Units |
Sigma |
Reference |
Notes |
absolute magnitude |
H |
16.7 |
|
n/a |
MPO433115 |
|
|
173592 (2001 DQ26) Discovered 2001-Feb-17 by LINEAR at Socorro |
Reference: 20080122/Numbers.arc | Last Updated: 2008-01-28 |
|
[ show close-approach data ]
|